Location: Newark
(35.8833°N, 14.5000°E)
Time: 09:40:06
(UTC+00:00)

PCSat - Visible Passes

Search period start: 19 May 2019 00:00
Search period end: 29 May 2019 00:00
Orbit: 785 x 794 km, 67.1° (Epoch: 19 May)

Date Brightness Start Highest point End Pass type
(mag) Time Alt. Az. Time Alt. Az. Time Alt. Az.
19 May 10.8 22:47:58 10° NNW 22:51:43 38° NNE 22:51:43 38° NNE visible
20 May 10.9 22:17:13 10° N 22:21:16 33° NE 22:21:16 33° NE visible
21 May 11.8 00:00:53 10° NW 00:01:57 15° WNW 00:01:57 15° WNW visible
21 May 11.1 21:46:34 10° N 21:50:52 26° NE 21:50:52 26° NE visible
21 May 11.5 23:29:34 10° NW 23:31:34 21° NW 23:31:34 21° NW visible
22 May 11.4 21:16:04 10° N 21:19:59 20° NE 21:20:30 19° ENE visible
22 May 11.1 22:58:24 10° NW 23:01:12 30° NW 23:01:12 30° NW visible
23 May 11.7 20:45:47 10° NNE 20:48:46 15° NE 20:50:11 13° ENE visible
23 May 10.6 22:27:21 10° NNW 22:30:53 42° NW 22:30:53 42° NW visible
24 May 11.9 20:16:14 10° NNE 20:17:30 11° NE 20:18:47 10° ENE visible
24 May 10.2 21:56:24 10° NNW 22:00:36 53° N 22:00:36 53° N visible
25 May 10.1 21:25:33 10° NNW 21:30:21 50° NE 21:30:21 50° NE visible
25 May 11.9 23:10:10 10° WNW 23:11:03 13° WNW 23:11:03 13° WNW visible
26 May 10.4 20:54:47 10° N 20:59:48 37° ENE 21:00:08 37° ENE visible
26 May 11.5 22:38:32 10° NW 22:40:50 20° WNW 22:40:50 20° WNW visible
27 May 10.8 20:24:06 10° N 20:28:43 27° NE 20:29:58 25° ENE visible
27 May 10.9 22:07:11 10° NW 22:10:40 31° WNW 22:10:40 31° WNW visible
28 May 11.3 19:53:35 10° N 19:57:35 20° NE 19:59:49 16° E visible
28 May 10.2 21:36:00 10° NW 21:40:32 49° W 21:40:32 49° W visible
